Regional Weather Roundup
Issued by NWS Pendleton, OR

Home | Current Version | Previous Version | Text Only | Print | Product List | Glossary On
Versions: 1 2 3 4 5 6 7 8 9 10 11 12 13 14 15 16 17 18 19 20 21 22 23 24 25 26 27 28 29 30 31 32 33 34 35 36 37 38 39 40 41 42 43 44 45 46 47 48 49 50
218
ASUS46 KPDT 302110
RWRPDT
PENDLETON REGIONAL WEATHER ROUNDUP
NATIONAL WEATHER SERVICE PENDLETON OREGON
200 PM PDT TUE AUG 30 2016

NOTE: FAIR INDICATES FEW OR NO CLOUDS BELOW 12,000 FEET WITH NO
SIGNIFICANT WEATHER AND/OR OBSTRUCTIONS TO VISIBILITY.

# INDICATES UNOFFICIAL STATION AND DATA

WAZ520-302210-
EAST SLOPES OF WASHINGTON CASCADES

CITY            SKY/WX      TMP DP  RH  WIND    PRES   REMARKS
#CLE ELUM HS    N/A         78  42  28  NW1     29.87S
#CLE ELUM 2NW   N/A         78  40  26  W3      N/A
#GLENWOOD       N/A         71  56  59  S5      29.87F
#MANASTASH CYN  N/A         77  42  29  CALM    29.93F
#NELSON 3SW     N/A         74  52  46  CALM    30.01S
#NILE           N/A         80  39  23  N1      29.10F
#RONALD 2NW     N/A         77  N/A N/A S1      29.83F
#TEANAWAY 4NE   N/A         81  46  29  SW1     N/A
#TROUT LAKE 1NE N/A         71  52  51  SW3     29.88S
#TROUT LAKE 1E  N/A         72  51  48  CALM    29.91F
$$

WAZ521-302210-
SIMCOE HIGHLANDS

CITY            SKY/WX      TMP DP  RH  WIND    PRES   REMARKS
#CENTERVILLE 1SWN/A         69  48  47  W10     29.86R
#GOLDENDALE 1NE N/A         72  34  25  SW6     N/A
#GOLDENDALE 4W  N/A         71  57  61  W14     29.99R
#GOODNOE HILLS  N/A         76  50  40  W15     29.83S
#LYLE 6NE       N/A         62  51  67  S10     29.89R
$$

WAZ026-302210-
KITTITAS VALLEY

CITY            SKY/WX      TMP DP  RH  WIND    PRES   REMARKS
ELLENSBURG AP   CLOUDY      83  48  30  NE5     29.90F
#ELLENSBURG CWU N/A         77  53  43  NE1     29.78F
#ELLENSBURG 3NE N/A         73  55  53  CALM    29.91F
#ELLENSBURG     N/A         82  50  33  N3      N/A
#ELLENSBURG 1E  N/A         79  N/A N/A NE1     N/A
#KITTITAS 4N    N/A         79  52  39  NW2     29.94F
#KITTITAS 3S    N/A         75  54  48  CALM    29.81F
#THORP 6N       N/A         78  39  25  E5      29.84R
$$

WAZ027-302210-
YAKIMA VALLEY

CITY            SKY/WX      TMP DP  RH  WIND    PRES   REMARKS
YAKIMA AIRPORT  MOCLDY      88  40  19  E6      29.88F
YAKIMA-VAGABOND N/A         84  38  19  W6      29.87F
#DONALD 2NE     N/A         86  16   7  SE1     28.73
#GRANDVIEW      N/A         77  49  37  CALM    29.85F
#MABTON         N/A         77  56  48  N5      29.85F
#NACHES 2SW     N/A         82  49  32  SE1     29.92F
#TERRACE HTS    N/A         88  49  26  CALM    29.79F
#TOPPENISH      N/A         80  50  35  CALM    29.76S
#WEST VALLEY    N/A         82  43  25  CALM    29.80F
#WHITE SWAN 5E  N/A         82  44  26  NE2     29.83S
#WILEY CITY 3W  N/A         83  27  13  NE1     29.86F
$$

WAZ028-302210-
LOWER COLUMBIA BASIN...WASHINGTON

CITY            SKY/WX      TMP DP  RH  WIND    PRES   REMARKS
HANFORD         CLOUDY      83  41  23  N5      29.86S
PASCO           CLOUDY      83  48  30  W7      29.87R
PROSSER AWOS    N/A         81  50  34  N5      29.90S
RICHLAND AWOS   CLOUDY      83  51  33  S9      29.86R
#BENTON CITY    N/A         79  53  41  NW2     29.75R
#CONNELL 5N     N/A         79  53  41  SW3     29.82F
#CONNELL 5NW    N/A         79  56  45  W5      29.78F
#ELTOPIA 6NW    N/A         76  56  50  CALM    28.85R
#KAHLOTUS       N/A         81  48  32  NW13    29.80S
#KENNEWICK 3S   N/A         81  51  35  N5      29.84R
#SAGEMOOR 2W    N/A         79  50  36  S3      29.69S
#TOUCHET 2S     N/A         86  52  31  SW7     29.80S
#WEST PASCO     N/A         83  57  41  SW1     29.85R
$$

WAZ029-302210-
FOOTHILLS OF THE BLUES...WASHINGTON

CITY            SKY/WX      TMP DP  RH  WIND    PRES   REMARKS
WALLA WALLA AP  CLOUDY      82  43  25  W12     29.89R
#CLYDE 6NW      N/A         79  48  34  W14     29.81R
#DAYTON SCHOOL  N/A         81  44  27  SW1     29.89S
#LOWDEN 2SE     N/A         83  50  32  W7      29.82R
#PLEASANT VIEW 1N/A         82  44  26  S6      29.83R
#PRESCOTT       N/A         83  51  33  SW2     29.81R
#WHITMAN COLLEGEN/A         80  48  33  SW3     29.85S
#WAITSBURG 8N   N/A         82  24  12  S13     29.83F
#WALLA WALLA U  N/A         82  49  32  S3      29.82R
#WHITMAN MISSIONN/A         81  52  37  W2      29.84R
$$

WAZ030-302210-
BLUE MOUNTAINS...WASHINGTON

CITY            SKY/WX      TMP DP  RH  WIND    PRES   REMARKS
#DIXIE 5SE      N/A         75  48  38  W8      29.90R
$$

ORZ009-041-WAZ024-302210-
COLUMBIA RIVER GORGE

CITY            SKY/WX      TMP DP  RH  WIND    PRES   REMARKS
HOOD RIVER AP   CLOUDY      64  50  60  NW8     29.98R
THE DALLES AP   CLOUDY      72  48  43  NW12G24 29.93R
#ARLINGTON AIRPON/A         76  50  40  W8      29.86R
#LYLE           N/A         67  53  61  NW9G24  29.95R
#MARYHILL 2W    N/A         N/A N/A N/A CALM    N/A
#MOSIER 1S      N/A         64  40  41  NW6     29.97R
#MURDOCK        N/A         69  52  55  N16G26  29.89
#RUFUS DOT      N/A         78  48  35  W16     N/A
#SMITHVILLE     N/A         69  52  55  N14     29.83R

$$

ORZ510-302210-
NORTH CENTRAL OREGON

CITY            SKY/WX      TMP DP  RH  WIND    PRES   REMARKS
#ANTELOPE       N/A         73  47  40  SW12    29.72R
#COW CYN RST AREN/A         70  N/A N/A SW8     N/A
#DUFUR 9E       N/A         63  49  60  W6      29.93R
#GRASS VALLEY 1SN/A         71  48  44  CALM    29.93R
#KENT DOT       N/A         72  44  37  N10     N/A
#MAUPIN SCHOOL  N/A         77  50  39  CALM    29.95S
#SHANIKO 5WSW   N/A         70  42  36  N5      N/A
#TYGH VALLEY 2NEN/A         75  49  40  CALM    29.86R
#WAPANITIA AIRPON/A         73  48  41  W7      29.88R
#WASCO DOT      N/A         73  53  49  W7      N/A
#WASCO 5NE      N/A         72  48  43  W10     29.85S
$$

ORZ511-302210-
CENTRAL OREGON

CITY            SKY/WX      TMP DP  RH  WIND    PRES   REMARKS
BEND AIRPORT    CLOUDY      72  41  33  SW7     30.01F
MADRAS AIRPORT  PTCLDY      75  45  34  CALM    30.00F
PRINEVILLE AP   PTCLDY      72  41  33  E9      30.01F
REDMOND AIRPORT CLOUDY      72  41  33  NW8     29.98F
#ASHWOOD SCHOOL N/A         73  45  37  CALM    29.96R
#BEND 1SW       N/A         70  48  46  S1      N/A
#BEND-AWBREY    N/A         69  47  45  CALM    29.83F
#CULVER         N/A         68  47  47  NE1     29.79F
#CULVER 8W      N/A         72  41  33  CALM    29.98F
#LAKE BILLY CHINN/A         71  N/A N/A CALM    30.02S
#MADRAS 4S      N/A         70  14  11  CALM    30.04F
#POWELL BUTTE 3EN/A         68  47  47  NW3     N/A
#POWELL BUTTE   N/A         70  43  38  S6      29.86F
#PRINEVILLE 3N  N/A         66  56  70  E12     29.84F

$$


ORZ509-302210-
EAST SLOPES OF OREGON CASCADES

CITY            SKY/WX      TMP DP  RH  WIND    PRES   REMARKS
SISTERS AWOS    N/A         70  43  38  NE6     29.98F
#BLUE BOX PASS  N/A         59  N/A N/A NW3     N/A
#CAMP SHERMAN   N/A         69  45  42  CALM    29.98R
#LA PINE DOT    N/A         67  46  47  CALM    N/A
#LA PINE 4NW    N/A         65  45  48  CALM    29.92S
#LAVA BUTTE DOT N/A         65  46  50  CALM    N/A
#SISTERS AIRPOR N/A         69  50  51  N5      30.17S
#SISTERS ODOT   N/A         70  N/A N/A NW3     N/A
#SISTERS 3N     N/A         69  44  40  N3      30.00S
#SUNRIVER       N/A         65  50  58  CALM    29.87S
#SUTTLE LK DOT  N/A         59  45  60  SW2     N/A
#TUMALO 3W      N/A         68  44  42  CALM    29.72F
#WANOGA BUTTE D N/A         62  34  35  NW2     N/A

$$

ORZ044-302210-
LOWER COLUMBIA BASIN...OREGON

CITY            SKY/WX      TMP DP  RH  WIND    PRES   REMARKS
HERMISTON       CLOUDY      79  49  35  W7      29.88S
#BOARDMAN SCHOOLN/A         79  53  41  S3      29.87R
#ECHO 8SW       N/A         78  50  38  W5      29.90S
#I-84 EX 198 DOTN/A         76  54  46  E8      N/A
#UMATILLA       N/A         77  53  43  CALM    29.79S
$$

ORZ507-302210-
NORTHERN FOOTHILLS OF THE BLUES

CITY            SKY/WX      TMP DP  RH  WIND    PRES   REMARKS
PENDLETON AIRPT CLOUDY      77  47  35  W10     29.92R
#ADAMS 3WNW     N/A         77  47  35  SW7     29.83R
#ATHENA         N/A         78  47  34  W6      29.86S
#CAYUSE         N/A         77  49  37  W12     29.83R
#HELIX SCHOOL   N/A         76  48  37  N6      29.83R
#HELIX 3N       N/A         77  47  35  SW13    29.89S
#HOLDMAN 5SE    N/A         76  51  42  W8      29.90F
#HOLDMAN 6E     N/A         76  49  39  NE9     29.64S
#M-F GROVE ELEM N/A         81  45  28  CALM    29.87R
#M-FREEWATER 5SEN/A         80  53  39  W1      29.90R
#PENDLETON DNTN N/A         79  47  32  CALM    29.92S
#PDT AQUATIC CTRN/A         77  46  33  W7      29.93S
#PDT SUNRIDGE   N/A         78  49  36  W5      29.92R
#PENDLETON 7NW  N/A         76  54  46  W7      32.44S
#PILOT ROCK 1S  N/A         79  44  29  N2      29.91F
#PILOT ROCK     N/A         84  47  28  N2      29.92S
#TUTUILLA       N/A         77  48  36  CALM    29.87R
#UMAPINE 2E     N/A         82  53  37  NW5     29.84R
#WESTON SCHOOL  N/A         78  41  27  N2      29.79R

$$

ORZ508-302210-
SOUTHERN FOOTHILLS OF THE BLUES

CITY            SKY/WX      TMP DP  RH  WIND    PRES   REMARKS
LEXINGTON       PTCLDY      77  45  32  W10     29.97R
#AJAX           N/A         74  39  28  SW6     27.73R
#CONDON SCHOOL  N/A         74  43  33  SW6     29.96R
#CONDON 5W      N/A         71  38  30  W8      29.99R
#FOSSIL SCHOOL  N/A         76  41  28  NW1     29.94R
#HEPPNER EOC    N/A         75  45  34  N2      29.80R
#HEPPNER 4NE    N/A         72  44  37  W7      29.84R
#LEXINGTON 2SE  N/A         77  49  37  NW2     29.91R
#MIKKALO        N/A         74  42  32  W14     30.06R
#OLEX 4N        N/A         74  48  40  W14     29.90R
#RUGGS 2SW      N/A         74  41  30  W5      29.86R

$$

ORZ502-503-302210-
BLUE MOUNTAINS

CITY            SKY/WX      TMP DP  RH  WIND    PRES   REMARKS
MEACHAM         CLOUDY      75  35  23  CALM    30.02R
#BATTLE MTN DOT N/A         73  41  31  N1      N/A
#CUTSFORTH PARK N/A         74  36  25  CALM    29.78F
#GREENHORN 9SW  N/A         87  32  14  W1      26.18S
#HARDMAN 10S    N/A         72  35  26  CALM    29.94R
#HEPPNER 15SE   N/A         70  42  36  W3      25.56S
#LADD CREEK ODOTN/A         78  52  40  NE8     N/A
#LONG CREEK HS  N/A         75  40  28  N5      29.99F
#N POWDER DOT   N/A         80  51  36  NW5     N/A
#PIKES PEAK     N/A         69  43  39  SW8     27.99S
#TOLLGATE       N/A         74  45  35  CALM    29.93S
#TROY SCHOOL    N/A         88  49  26  CALM    29.60S
#UKIAH          N/A         79  33  19  CALM    29.75S
#WESTON 4E      N/A         74  43  33  SW5     29.78R
$$

ORZ505-302210-
JOHN DAY BASIN

CITY            SKY/WX      TMP DP  RH  WIND    PRES   REMARKS
JOHN DAY        CLOUDY      80  27  14  CALM    29.98F
#DAYVILLE SCHOOLN/A         79  34  20  N3      29.89F
#MITCHELL       N/A         79  49  35  CALM    30.15R
#MITCHELL 8NW   N/A         75  41  29  CALM    30.02S
#MONUMENT HS    N/A         78  37  23  CALM    29.82S
#MT. VERNON 5SE N/A         76  31  19  CALM    29.94F
#SPRAY SCHOOL   N/A         83  N/A N/A CALM    N/A
$$

ORZ506-302210-
OCHOCO AND JOHN DAY HIGHLANDS

CITY            SKY/WX      TMP DP  RH  WIND    PRES   REMARKS
#BUCK CREEK DOT N/A         76  26  16  SW16    N/A
#HORSE RIDGE DO N/A         70  34  26  NE9     N/A
#KEYES SMT DOT  N/A         74  40  29  SW8     N/A
#PAULINA SCHOOL N/A         80  23  12  SW12    N/A
#PINE MTN OBS   N/A         60  35  39  S14G33  N/A
#PRAIRIE CITY   N/A         78  30  17  CALM    30.14
#SENECA         N/A         76  N/A N/A S2      N/A
#SENECA 9NW     N/A         75  34  22  CALM    29.83F
$$

ORZ049-302210-
GRANDE RONDE VALLEY

CITY            SKY/WX      TMP DP  RH  WIND    PRES   REMARKS
LA GRANDE       CLOUDY      81  41  24  E6      29.92F
#COVE           N/A         80  51  36  NE5     29.96F
#COVE SCHOOL    N/A         81  48  32  SW1     29.96S
#COVE 6NW       N/A         78  45  31  W2      29.81S
#ELGIN 3N       N/A         81  41  24  CALM    29.90S
#ELGIN 1E       N/A         83  44  25  CALM    N/A
#IMBLER SCHOOL  N/A         80  44  28  CALM    29.88F
#ISLAND CITY 4N N/A         66  54  65  CALM    30.03F
#LADD CYN DOT   N/A         80  53  39  N2      N/A
#LA GRANDE ELEM N/A         80  46  30  SW2     29.94F
#UNION 1S       N/A         79  48  34  NW2     29.68F
$$

ORZ050-302210-
WALLOWA COUNTY

CITY            SKY/WX      TMP DP  RH  WIND    PRES   REMARKS
JOSEPH AIRPORT  CLOUDY      84  32  15  N3      29.96F
#IMNAHA 10S     N/A         90  36  15  N3      29.90F HX 86
#JOSEPH 3N      N/A         80  37  21  CALM    30.01F
#JOSEPH 3W      N/A         81  36  20  CALM    29.88F
#LOSTINE        N/A         85  41  21  CALM    29.58F
#LOSTINE 3SE    N/A         83  34  17  N2      29.94F
#MT HOWARD 8000 N/A         66  25  21  S7      30.31F
#PROMISE 1S     N/A         81  44  27  W1      29.88S
#WALLOWA SCHOOL N/A         85  45  25  CALM    29.89F



$$



USA.gov is the U.S. government's official web portal to all federal, state and local government web resources and services.